カタログに戻る

OPS 4682 DEB

運用中PO
NORAD 38425·DEBRIS·🇺🇸 United States

打ち上げ Apr 3, 1965 から Vandenberg Space Force Base

Loading…

次のパス (今後24時間)

TLE

最新Source: Space-Track

元期: Sep 14, 2026, 07:06 UTC

1 38425U 65027EE  26257.29595578  .00000187  00000-0  63875-3 0  9992
2 38425  90.2519   9.7125 0034387 356.2794   3.8065 12.95256038674094

AllMySatでOPS 4682 DEBをリアルタイム追跡

Download on the App Store